Regional Weather Roundup
Issued by NWS

Home | Current Version | Previous Version | Text Only | Print | Product List | Glossary On
Versions: 1 2 3 4 5 6 7 8 9 10 11 12 13 14 15 16 17 18 19 20 21 22 23 24 25 26 27 28 29 30 31 32 33 34 35 36 37 38 39 40 41 42 43 44 45 46 47 48 49 50
000
ASCA42 TJSJ 192211
RWRPR
PUERTO RICO/U.S. VIRGIN ISLANDS HOURLY WEATHER ROUNDUP
NATIONAL WEATHER SERVICE SAN JUAN PR
600 PM AST FRI SEP 19 2014

PRZ001-004-192300-
PUERTO RICO

CITY           SKY/WX    TMP DP  RH WIND       PRES   REMARKS
SAN JUAN LMM   PTCLDY    86  75  70 E13       29.93R HX  95
AGUADILLA      MOCLDY    82  75  78 E13       29.94S
CEIBA          CLEAR     84  75  74 E8        29.97R HX  92
$$

PRZ006-007-192300-
U.S. VIRGIN ISLANDS

CITY           SKY/WX    TMP DP  RH WIND       PRES   REMARKS
CHARLOTTE AMA  CLEAR     84  75  74 SE13      29.94  HX  92
CHRISTIANSTED  PTCLDY    84  75  74 E9        29.95  HX  92
$$

HOURLY WEATHER ROUNDUP FOR THE NEWS MEDIA

CITY           SKY/WX    TMP DP  RH WIND       PRES   REMARKS
MIAMI          CLOUDY    77  74  90 CALM      29.91F
ORLANDO        LGT RAIN  75  68  78 E8        29.96R
NEW YORK       MOSUNNY   63  47  55 E14       30.35S
NEWARK         MOSUNNY   63  49  60 SE9       30.34R
CHICAGO        PTSUNNY   78  43  28 S20       30.01F
HARTFORD       CLEAR     55  37  50 NE8       30.39R
BOSTON         PTCLDY    53  30  41 E8        30.41S
DALLAS         PTSUNNY   87  67  51 E13G20    29.89F HX  90
PHILADELPHIA   MOSUNNY   65  53  65 SE13      30.32S


USA.gov is the U.S. government's official web portal to all federal, state and local government web resources and services.